Regional Weather Roundup
Issued by NWS

Home | Current Version | Previous Version | Text Only | Print | Product List | Glossary On
Versions: 1 2 3 4 5 6 7 8 9 10 11 12 13 14 15 16 17 18 19 20 21 22 23 24 25 26 27 28 29 30 31 32 33 34 35 36 37 38 39 40 41 42 43 44 45 46 47 48 49 50
214
ASUS43 KLMK 212202
RWRKY
KENTUCKY REGIONAL WEATHER ROUNDUP
NATIONAL WEATHER SERVICE LOUISVILLE KY
500 PM EST SAT JAN 21 2017

NOTE "FAIR" INDICATES FEW OR NO CLOUDS BELOW 12,000 FEET
WITH NO SIGNIFICANT WEATHER AND/OR OBSTRUCTIONS TO VISIBILITY.

KYZ001>023-026-027-061>063-070>075-212300-
WESTERN AND SOUTH CENTRAL KENTUCKY

CITY           SKY/WX    TMP DP  RH WIND       PRES   REMARKS
PADUCAH        CLOUDY    68  49  50 VRB5      29.55F
HENDERSON      CLEAR     66  50  55 S8        29.56F
OWENSBORO      CLEAR     65  54  67 S3        29.59F
HOPKINSVILLE   PTSUNNY   68  49  49 S8        29.58F
BOWLING GREEN  CLEAR     67  48  50 S7        29.62R
GLASGOW        NOT AVBL
$$

KYZ024-025-028>034-038-045-046-053-212300-
NORTH CENTRAL KENTUCKY

CITY           SKY/WX    TMP DP  RH WIND       PRES   REMARKS
LOUISVILLE/SDF MOCLDY    66  51  58 S5        29.60F
LOUISVILLE/LOU PTCLDY    67  52  58 S8        29.62S
FORT KNOX      PTCLDY    65  51  58 S7        29.60S
$$

KYZ035>037-039>044-047>052-055>060-089>105-212300-
NORTHEAST KENTUCKY

CITY           SKY/WX    TMP DP  RH WIND       PRES   REMARKS
LEXINGTON      CLOUDY    64  52  64 S5        29.65F
COVINGTON      CLOUDY    63  54  72 S9        29.63R
FRANKFORT      CLOUDY    66  52  60 SW5       29.62F
$$

KYZ054-064>069-076>088-106>120-212300-
SOUTHEAST KENTUCKY

CITY           SKY/WX    TMP DP  RH WIND       PRES   REMARKS
JACKSON        CLOUDY    60  51  72 CALM      29.67F
LONDON         MOCLDY    61  52  72 CALM      29.66F
SOMERSET       CLOUDY    59  50  72 CALM      29.68R
MIDDLESBORO    CLEAR     58  51  77 CALM      29.66F
MONTICELLO     CLOUDY    63  51  65 W7        29.67S
$$





USA.gov is the U.S. government's official web portal to all federal, state and local government web resources and services.